Regional Weather Roundup
Issued by NWS

Home | Current Version | Previous Version | Graphics & Text | Print | Product List | Glossary On
Versions: 1 2 3 4 5 6 7 8 9 10 11 12 13 14 15 16 17 18 19 20 21 22 23 24 25 26 27 28 29 30 31 32 33 34 35 36 37 38 39 40 41 42 43 44 45 46 47 48 49 50
000
ASUS43 KBIS 310820
RWRND

NORTH DAKOTA REGIONAL WEATHER ROUNDUP
NATIONAL WEATHER SERVICE BISMARCK ND
300 AM CDT THU JUL 31 2014

NOTE: "FAIR" INDICATES FEW OR NO CLOUDS BELOW 12,000 FEET WITH NO
SIGNIFICANT WEATHER AND/OR OBSTRUCTIONS TO VISIBILITY.


NDZ001>003-009>011-017-310900-
NORTHWEST NORTH DAKOTA

CITY           SKY/WX    TMP DP  RH WIND       PRES   REMARKS
WILLISTON      LGT RAIN  65  58  78 N5        30.15F
MINOT          PTCLDY    59  54  83 SW9       30.10F
MINOT AFB      PTCLDY    56  56  97 W8        30.10S
$$

NDZ018>021-031>035-040>046-310900-
SOUTHWEST NORTH DAKOTA

CITY           SKY/WX    TMP DP  RH WIND       PRES   REMARKS
BISMARCK       MOCLDY    62  56  80 CALM      30.11S
DICKINSON      MOCLDY    60  54  80 N7        30.15R
GARRISON         N/A     58  57  97 NW3       30.12R
HETTINGER ARPT CLEAR     50  47  89 CALM      30.14S
$$

NDZ004>008-012>016-024-026-027-054-310900-
NORTHEAST NORTH DAKOTA

CITY           SKY/WX    TMP DP  RH WIND       PRES   REMARKS
GRAND FORKS    CLEAR     59  56  89 SW6       30.02F
GRND FRKS AFB  CLEAR     59  58  99 W2        30.04F
DEVILS LAKE    CLEAR     63  57  82 W7        30.06S
$$

NDZ022-023-025-028>030-036>039-047>053-310900-
SOUTHEAST NORTH DAKOTA

CITY           SKY/WX    TMP DP  RH WIND       PRES   REMARKS
FARGO          CLEAR     59  55  87 W3        30.04F
JAMESTOWN      PTCLDY    58  54  86 CALM      30.08S
$$



USA.gov is the U.S. government's official web portal to all federal, state and local government web resources and services.